Simultaneous Nadir Overpasses (SNOs) Predictions

Prediction of SNOs between LANDSAT-8 and METOP-B Satellite Orbit:

Table of predicted SNOs for the next 14.0 days since TLE Epoch: 12/21/2024
Index Date (LANDSAT-8) Time (LANDSAT-8) Lat,Lon (LANDSAT-8) SZA (LANDSAT-8 ) Date (METOP-B) Time (METOP-B) Lat,Lon (METOP-B) SZA (METOP-B ) Distance(km) Time Diff (sec)
1 12/21/2024 05:02:53 81.43, 149.67 107.31 12/21/2024 05:03:36 81.43, 149.72 107.33 1.09 43
2 12/23/2024 23:47:44 -81.42, 48.07 72.81 12/23/2024 23:47:37 -81.42, 48.01 72.81 1.24 7
3 12/24/2024 00:37:10 81.42,-144.18 107.21 12/24/2024 00:38:17 81.43,-144.21 107.24 0.72 67
4 12/26/2024 18:32:31 81.43, -52.80 107.12 12/26/2024 18:31:35 81.42, -52.93 107.08 2.44 56
5 12/26/2024 19:21:58 -81.43, 114.80 72.89 12/26/2024 19:22:15 -81.43, 114.79 72.89 0.41 17
6 12/29/2024 14:06:47 81.41, 13.28 106.89 12/29/2024 14:06:15 81.42, 13.29 106.88 0.79 32
7 12/29/2024 14:56:13 -81.43,-178.71 73.07 12/29/2024 14:56:54 -81.43,-178.55 73.04 2.62 41
8 01/01/2025 09:41:01 81.42, 79.92 106.67 01/01/2025 09:40:54 81.42, 79.79 106.66 2.09 7
9 01/01/2025 10:30:28 -81.42,-112.44 73.34 01/01/2025 10:31:34 -81.43,-112.41 73.30 0.65 66



Historial Predications of SNOs between LANDSAT-8 and METOP-B
